Starlink 32501

operational
NORAD ID: 61890 Int'l Des: 2024-204 Owner: SPXS Country: US Constellation: starlink
LEOCIRCULAR

About Starlink 32501

Description loading...

Live Position

Loading 3D Globe...

Upcoming Passes

Altitude History

Altitude vs Time

uPlot chart will show altitude changes over time

Two-Line Element Set

1 61890U 24204S 25258.18377819 .00000696 00000-0 35632-4 0 9996
2 61890 53.1605 222.5077 0001305 84.6618 275.4532 15.30201638 48226
Epoch: Sep 15, 2025 • Age: 9 hours

Current Status

Altitude 477.1 km
Velocity 7.63 km/s
Sub-Earth Point -5.03°S, 146.03°W
Launch Date Nov 9, 2024
Age 0.8 years
Type internet

Technical Details

Classification Payload
Mass 730.00 kg
Dry Mass 700.00 kg
Total Mass 730.00 kg
Length 0.30 m
Diameter 4.10 m
Span 29.00 m
Shape Box + pan
Manufacturer SPXS
Bus Type Starlink V2M
Phase Status In Orbit
Owner/State SPXS/US

Large Constellations

Loading constellations...